FW0315 Weather Reports


Display with metric or nautical units.
time (UTC)temp
F
wind
direction
speed
MPH
gust
MPH
rain 1hr
in
rain 24hr
in
rain mn
in
humidity
%
barometer
mb
20180919181012 73 188 2.0 4.0 0.00 0.00 0.00 40 1016.0
20180919180512 73 159 1.0 4.0 0.00 0.00 0.00 40 1016.0
20180919180014 74 159 1.0 2.0 0.00 0.00 0.00 41 1016.0
20180919175511 73 137 1.0 3.0 0.00 0.00 0.00 41 1015.9
20180919175012 74 139 0.0 1.0 0.00 0.00 0.00 41 1015.9
20180919174511 74 262 0.0 2.0 0.00 0.00 0.00 41 1015.9
20180919174012 73 178 1.0 3.0 0.00 0.00 0.00 42 1015.9
20180919173511 73 169 1.0 4.0 0.00 0.00 0.00 43 1015.9
20180919173012 72 180 0.0 0.0 0.00 0.00 0.00 44 1015.8
20180919172511 72 167 1.0 3.0 0.00 0.00 0.00 44 1015.8
20180919172013 72 225 1.0 3.0 0.00 0.00 0.00 44 1015.8
20180919171512 71 225 0.0 1.0 0.00 0.00 0.00 45 1015.9
20180919171012 71 260 0.0 2.0 0.00 0.00 0.00 45 1015.9
20180919170511 70 80 1.0 2.0 0.00 0.00 0.00 46 1015.8
20180919170015 70 164 0.0 2.0 0.00 0.00 0.00 46 1015.8
20180919165511 70 225 1.0 2.0 0.00 0.00 0.00 47 1015.7
20180919165013 69 90 0.0 2.0 0.00 0.00 0.00 48 1015.7
20180919164510 69 296 0.0 2.0 0.00 0.00 0.00 48 1015.7
20180919164011 69 219 1.0 2.0 0.00 0.00 0.00 50 1015.7
20180919163511 68 247 0.0 2.0 0.00 0.00 0.00 51 1015.6
20180919163013 68 270 0.0 0.0 0.00 0.00 0.00 52 1015.5
20180919162511 67 256 0.0 1.0 0.00 0.00 0.00 54 1015.5
20180919162012 67 113 0.0 0.0 0.00 0.00 0.00 55 1015.6
20180919161511 65 225 0.0 0.0 0.00 0.00 0.00 58 1015.5
20180919161012 64 135 0.0 1.0 0.00 0.00 0.00 62 1015.6
20180919160512 62 112 0.0 0.0 0.00 0.00 0.00 65 1015.6
20180919160014 61 180 0.0 0.0 0.00 0.00 0.00 67 1015.4
20180919155511 60 180 0.0 0.0 0.00 0.00 0.00 67 1015.3
20180919155016 59 112 0.0 0.0 0.00 0.00 0.00 68 1015.3
20180919154515 59 112 0.0 0.0 0.00 0.00 0.00 69 1015.2
20180919154012 58 112 0.0 0.0 0.00 0.00 0.00 70 1015.2
20180919153515 57 112 0.0 0.0 0.00 0.00 0.00 72 1015.1
20180919153013 56 67 0.0 0.0 0.00 0.00 0.00 74 1015.1
20180919152514 56 67 0.0 0.0 0.00 0.00 0.00 74 1015.0
20180919152013 55 360 0.0 0.0 0.00 0.00 0.00 75 1015.0
20180919151516 55 360 0.0 0.0 0.00 0.00 0.00 75 1015.1
20180919151015 55 353 0.0 0.0 0.00 0.00 0.00 76 1015.1
20180919150512 54 337 0.0 0.0 0.00 0.00 0.00 76 1015.1
20180919150014 54 337 0.0 0.0 0.00 0.00 0.00 76 1014.8
20180919145512 54 337 0.0 0.0 0.00 0.00 0.00 76 1014.9
20180919145020 54 337 0.0 0.0 0.00 0.00 0.00 76 1014.8
20180919144511 54 337 0.0 0.0 0.00 0.00 0.00 76 1014.8
20180919144012 54 337 0.0 0.0 0.00 0.00 0.00 76 1014.7
20180919143511 54 337 0.0 0.0 0.00 0.00 0.00 76 1014.7
20180919143019 54 337 0.0 0.0 0.00 0.00 0.00 76 1014.7
20180919142518 54 337 0.0 0.0 0.00 0.00 0.00 76 1014.7
20180919142012 54 337 0.0 0.0 0.00 0.00 0.00 76 1014.7
20180919141511 53 337 0.0 0.0 0.00 0.00 0.00 76 1014.7
20180919141011 53 337 0.0 0.0 0.00 0.00 0.00 76 1014.6
20180919140515 53 337 0.0 0.0 0.00 0.00 0.00 76 1014.6
20180919140014 53 337 0.0 0.0 0.00 0.00 0.00 75 1014.5
20180919135511 53 337 0.0 0.0 0.00 0.00 0.00 76 1014.4
20180919135013 53 337 0.0 0.0 0.00 0.00 0.00 77 1014.4
20180919134515 53 337 0.0 0.0 0.00 0.00 0.00 76 1014.3
20180919134019 54 337 0.0 0.0 0.00 0.00 0.00 77 1014.3
20180919133511 54 337 0.0 0.0 0.00 0.00 0.00 76 1014.3
20180919133018 54 337 0.0 0.0 0.00 0.00 0.00 76 1014.2
20180919132516 54 337 0.0 0.0 0.00 0.00 0.00 76 1014.2
20180919132013 54 337 0.0 0.0 0.00 0.00 0.00 77 1014.0
20180919131511 53 322 0.0 0.0 0.00 0.00 0.00 77 1014.1
20180919131015 53 315 0.0 0.0 0.00 0.00 0.00 78 1014.0
20180919130520 53 315 0.0 0.0 0.00 0.00 0.00 78 1014.0
20180919130015 53 315 0.0 0.0 0.00 0.00 0.00 78 1014.0
20180919125510 53 315 0.0 0.0 0.00 0.00 0.00 79 1014.0
20180919125012 53 315 0.0 0.0 0.00 0.00 0.00 79 1013.9
20180919124518 53 315 0.0 0.0 0.00 0.00 0.00 80 1013.8
20180919124020 53 315 0.0 0.0 0.00 0.00 0.00 80 1013.8
20180919123512 53 315 0.0 0.0 0.00 0.00 0.00 80 1013.8
20180919123012 53 315 0.0 0.0 0.00 0.00 0.00 80 1013.7
20180919122511 53 315 0.0 0.0 0.00 0.00 0.00 80 1013.8
20180919122012 53 315 0.0 0.0 0.00 0.00 0.00 81 1013.8
20180919121511 53 315 0.0 0.0 0.00 0.00 0.00 80 1013.7
20180919121011 53 315 0.0 0.0 0.00 0.00 0.00 81 1013.7
20180919120515 52 315 0.0 0.0 0.00 0.00 0.00 82 1013.7
20180919120014 52 315 0.0 0.0 0.00 0.00 0.00 83 1013.7
20180919115511 51 315 0.0 0.0 0.00 0.00 0.00 83 1013.6
20180919115012 50 315 0.0 0.0 0.00 0.00 0.00 84 1013.6
20180919114511 50 315 0.0 0.0 0.00 0.00 0.00 84 1013.6
20180919114011 50 315 0.0 0.0 0.00 0.00 0.00 84 1013.7
20180919113511 50 315 0.0 0.0 0.00 0.00 0.00 85 1013.7
20180919113012 50 315 0.0 0.0 0.00 0.00 0.00 85 1013.7
20180919112510 49 315 0.0 0.0 0.00 0.00 0.00 85 1013.8
20180919112012 49 315 0.0 0.0 0.00 0.00 0.00 85 1013.8
20180919111510 49 315 0.0 0.0 0.00 0.00 0.00 85 1013.9
20180919111012 49 315 0.0 0.0 0.00 0.00 0.00 85 1013.9
20180919110513 49 315 0.0 0.0 0.00 0.00 0.00 84 1013.8
20180919110012 49 315 0.0 0.0 0.00 0.00 0.00 84 1013.9
20180919105511 49 315 0.0 0.0 0.00 0.00 0.00 84 1013.8
20180919105012 50 315 0.0 0.0 0.00 0.00 0.00 84 1013.8
20180919104510 50 315 0.0 0.0 0.00 0.00 0.00 84 1013.8
20180919104012 50 315 0.0 0.0 0.00 0.00 0.00 84 1013.9
20180919103511 50 315 0.0 0.0 0.00 0.00 0.00 83 1013.9
20180919103012 50 315 0.0 0.0 0.00 0.00 0.00 83 1013.9
20180919102511 50 315 0.0 0.0 0.00 0.00 0.00 83 1013.8
20180919102012 50 315 0.0 0.0 0.00 0.00 0.00 83 1013.8
20180919101510 50 315 0.0 0.0 0.00 0.00 0.00 83 1013.9
20180919101011 50 315 0.0 0.0 0.00 0.00 0.00 83 1013.9
20180919100511 50 315 0.0 0.0 0.00 0.00 0.00 83 1013.9
20180919100014 50 315 0.0 0.0 0.00 0.00 0.00 83 1013.8
20180919095511 50 315 0.0 0.0 0.00 0.00 0.00 83 1013.9
20180919095011 50 315 0.0 0.0 0.00 0.00 0.00 83 1013.9
20180919094511 50 315 0.0 0.0 0.00 0.00 0.00 83 1014.0
20180919094011 51 315 0.0 0.0 0.00 0.00 0.00 83 1014.0
20180919093511 51 315 0.0 0.0 0.00 0.00 0.00 83 1014.1
20180919093012 51 315 0.0 0.0 0.00 0.00 0.00 82 1014.1
20180919092511 51 315 0.0 0.0 0.00 0.00 0.00 82 1014.1
20180919092012 51 315 0.0 0.0 0.00 0.00 0.00 82 1014.2
20180919091012 51 315 0.0 0.0 0.00 0.00 0.00 81 1014.2
20180919090512 52 315 0.0 0.0 0.00 0.00 0.00 81 1014.1
20180919090014 52 315 0.0 0.0 0.00 0.00 0.00 81 1014.1
20180919085511 52 315 0.0 0.0 0.00 0.00 0.00 81 1014.1
20180919085012 52 315 0.0 0.0 0.00 0.00 0.00 81 1014.0
20180919084511 52 315 0.0 0.0 0.00 0.00 0.00 81 1014.0
20180919084012 52 315 0.0 0.0 0.00 0.00 0.00 81 1014.0
20180919083511 52 315 0.0 0.0 0.00 0.00 0.00 81 1014.0
20180919083013 52 315 0.0 0.0 0.00 0.00 0.00 81 1014.0
20180919082012 52 315 0.0 0.0 0.00 0.00 0.00 82 1014.0
20180919081511 52 315 0.0 0.0 0.00 0.00 0.00 82 1014.0
20180919081012 52 315 0.0 0.0 0.00 0.00 0.00 82 1014.1
20180919080511 52 315 0.0 0.0 0.00 0.00 0.00 82 1014.1
20180919080013 52 315 0.0 0.0 0.00 0.00 0.00 81 1014.2
20180919075510 52 315 0.0 0.0 0.00 0.00 0.00 81 1014.1
20180919075011 52 315 0.0 0.0 0.00 0.00 0.00 81 1014.1
20180919074511 52 315 0.0 0.0 0.00 0.00 0.00 81 1014.1
20180919074012 52 315 0.0 0.0 0.00 0.00 0.00 81 1014.0
20180919073511 53 315 0.0 0.0 0.00 0.00 0.00 81 1014.1
20180919073012 53 315 0.0 0.0 0.00 0.00 0.00 81 1014.0
20180919072512 53 315 0.0 0.0 0.00 0.00 0.00 80 1014.0
20180919072011 53 315 0.0 0.0 0.00 0.00 0.00 80 1014.1
20180919071511 53 315 0.0 0.0 0.00 0.00 0.00 80 1014.2
20180919071011 53 315 0.0 0.0 0.00 0.00 0.00 80 1014.1
20180919070511 53 315 0.0 0.0 0.00 0.00 0.00 80 1014.1
20180919065511 53 315 0.0 0.0 0.00 0.00 0.00 79 1014.1
20180919065011 53 315 0.0 0.0 0.00 0.00 0.00 79 1014.2
20180919064511 54 315 0.0 0.0 0.00 0.00 0.00 80 1014.1
20180919064012 54 315 0.0 1.0 0.00 0.00 0.00 81 1014.1
20180919063511 54 315 0.0 1.0 0.00 0.00 0.00 81 1014.1
20180919063011 54 328 0.0 1.0 0.00 0.00 0.00 80 1014.2
20180919062511 54 315 0.0 1.0 0.00 0.00 0.00 80 1014.2
20180919062012 54 337 0.0 1.0 0.00 0.00 0.00 81 1014.2
20180919061511 54 337 0.0 1.0 0.00 0.00 0.00 80 1014.2
20180919061012 54 337 0.0 1.0 0.00 0.00 0.00 79 1014.3
20180919060511 55 315 0.0 1.0 0.00 0.00 0.00 78 1014.2
20180919060012 55 337 0.0 0.0 0.00 0.00 0.00 78 1014.3
20180919055510 55 337 0.0 1.0 0.00 0.00 0.00 77 1014.2
20180919055012 55 315 0.0 1.0 0.00 0.00 0.00 76 1014.3
20180919054511 55 180 0.0 0.0 0.00 0.00 0.00 76 1014.3
20180919054012 56 180 0.0 0.0 0.00 0.00 0.00 76 1014.3
20180919053510 56 180 0.0 0.0 0.00 0.00 0.00 76 1014.3
20180919053012 56 180 0.0 0.0 0.00 0.00 0.00 76 1014.4
20180919052511 56 180 0.0 0.0 0.00 0.00 0.00 76 1014.5
20180919052012 56 180 0.0 0.0 0.00 0.00 0.00 77 1014.5
20180919051510 56 180 0.0 0.0 0.00 0.00 0.00 76 1014.6
20180919051012 56 180 0.0 0.0 0.00 0.00 0.00 76 1014.6
20180919050511 56 180 0.0 0.0 0.00 0.00 0.00 76 1014.6
20180919050013 56 180 0.0 0.0 0.00 0.00 0.00 76 1014.6
20180919045511 56 180 0.0 0.0 0.00 0.00 0.00 76 1014.6
20180919045013 56 180 0.0 0.0 0.00 0.00 0.00 75 1014.6
20180919044511 56 180 0.0 0.0 0.00 0.00 0.00 75 1014.6
20180919044013 57 180 0.0 0.0 0.00 0.00 0.00 75 1014.6
20180919043511 57 180 0.0 0.0 0.00 0.00 0.00 75 1014.6
20180919043013 57 180 0.0 0.0 0.00 0.00 0.00 75 1014.6
20180919042511 57 180 0.0 0.0 0.00 0.00 0.00 75 1014.5
20180919042012 57 180 0.0 0.0 0.00 0.00 0.00 75 1014.6
20180919041511 57 180 0.0 0.0 0.00 0.00 0.00 74 1014.6
20180919041015 57 180 0.0 0.0 0.00 0.00 0.00 74 1014.6
20180919040512 57 180 0.0 0.0 0.00 0.00 0.00 74 1014.7
20180919040011 58 180 0.0 0.0 0.00 0.00 0.00 73 1014.7
20180919035511 58 180 0.0 0.0 0.00 0.00 0.00 73 1014.6
20180919035013 58 180 0.0 0.0 0.00 0.00 0.00 72 1014.5
20180919034012 58 180 0.0 0.0 0.00 0.00 0.00 72 1014.5
20180919033511 58 180 0.0 0.0 0.00 0.00 0.00 71 1014.4
20180919033012 59 180 0.0 0.0 0.00 0.00 0.00 71 1014.4
20180919032511 59 180 0.0 0.0 0.00 0.00 0.00 70 1014.5
20180919032012 59 180 0.0 0.0 0.00 0.00 0.00 69 1014.3
20180919031513 60 180 0.0 0.0 0.00 0.00 0.00 68 1014.4
20180919031012 60 180 0.0 0.0 0.00 0.00 0.00 68 1014.4
20180919030512 61 180 0.0 0.0 0.00 0.00 0.00 67 1014.4
20180919030014 61 180 0.0 0.0 0.00 0.00 0.00 66 1014.4
20180919025511 62 180 0.0 0.0 0.00 0.00 0.00 64 1014.4
20180919025012 62 158 0.0 0.0 0.00 0.00 0.00 64 1014.3
20180919024511 62 270 0.0 0.0 0.00 0.00 0.00 63 1014.4
20180919024011 63 270 0.0 0.0 0.00 0.00 0.00 63 1014.3
20180919023512 63 270 0.0 0.0 0.00 0.00 0.00 62 1014.3
20180919023012 64 270 0.0 2.0 0.00 0.00 0.00 61 1014.4
20180919022511 65 135 0.0 1.0 0.00 0.00 0.00 60 1014.3
20180919022013 65 247 1.0 2.0 0.00 0.00 0.00 57 1014.4
20180919021511 67 225 0.0 1.0 0.00 0.00 0.00 54 1014.3
20180919021012 67 108 0.0 1.0 0.00 0.00 0.00 51 1014.3
20180919020511 68 269 1.0 3.0 0.00 0.00 0.00 50 1014.2
20180919020013 69 247 1.0 2.0 0.00 0.00 0.00 47 1014.2
20180919015511 69 270 0.0 1.0 0.00 0.00 0.00 46 1014.2
20180919015012 70 149 0.0 1.0 0.00 0.00 0.00 46 1014.2
20180919014512 70 264 1.0 2.0 0.00 0.00 0.00 46 1014.2
20180919014011 70 233 1.0 4.0 0.00 0.00 0.00 45 1014.2
20180919013512 71 245 2.0 4.0 0.00 0.00 0.00 45 1014.2
20180919013012 72 276 1.0 3.0 0.00 0.00 0.00 45 1014.3
20180919012512 72 103 1.0 3.0 0.00 0.00 0.00 45 1014.3
20180919012012 73 242 1.0 3.0 0.00 0.00 0.00 44 1014.2
20180919011512 72 89 1.0 2.0 0.00 0.00 0.00 45 1014.2
20180919011012 72 277 3.0 6.0 0.00 0.00 0.00 44 1014.1
20180919010512 73 270 3.0 4.0 0.00 0.00 0.00 44 1014.1
20180919010013 74 272 3.0 5.0 0.00 0.00 0.00 44 1014.1
20180919005511 74 192 2.0 4.0 0.00 0.00 0.00 44 1014.1
20180919005012 75 234 0.0 3.0 0.00 0.00 0.00 44 1014.1
20180919004512 75 135 1.0 3.0 0.00 0.00 0.00 44 1014.1
20180919004014 75 259 2.0 4.0 0.00 0.00 0.00 44 1014.2
20180919003512 75 199 2.0 5.0 0.00 0.00 0.00 44 1014.1
20180919003012 74 108 1.0 4.0 0.00 0.00 0.00 45 1014.2
20180919002512 74 206 1.0 2.0 0.00 0.00 0.00 44 1014.2
20180919002012 74 257 4.0 6.0 0.00 0.00 0.00 44 1014.2
20180919001511 75 240 2.0 3.0 0.00 0.00 0.00 44 1014.2
20180919001015 75 274 3.0 5.0 0.00 0.00 0.00 44 1014.3
20180919000516 75 262 4.0 5.0 0.00 0.00 0.00 43 1014.3
20180919000014 75 164 2.0 4.0 0.00 0.00 0.00 42 1014.4
20180918235511 76 226 2.0 5.0 0.00 0.00 0.00 42 1014.4
20180918235012 77 137 1.0 4.0 0.00 0.00 0.00 42 1014.3
20180918234511 76 117 0.0 3.0 0.00 0.00 0.00 42 1014.4
20180918234011 76 154 1.0 2.0 0.00 0.00 0.00 41 1014.4
20180918233511 75 288 2.0 4.0 0.00 0.00 0.00 42 1014.3
20180918233012 75 269 4.0 7.0 0.00 0.00 0.00 42 1014.4
20180918232511 75 269 3.0 5.0 0.00 0.00 0.00 41 1014.5
20180918232013 76 261 3.0 4.0 0.00 0.00 0.00 41 1014.5
20180918231512 76 236 2.0 4.0 0.00 0.00 0.00 42 1014.6
20180918231012 76 259 1.0 3.0 0.00 0.00 0.00 42 1014.7
20180918230511 76 253 2.0 4.0 0.00 0.00 0.00 42 1014.7
20180918230015 75 261 1.0 3.0 0.00 0.00 0.00 42 1014.7
20180918225511 75 281 1.0 3.0 0.00 0.00 0.00 42 1014.7
20180918225013 75 240 1.0 3.0 0.00 0.00 0.00 42 1014.7
20180918224512 74 135 1.0 4.0 0.00 0.00 0.00 42 1014.7
20180918224012 74 264 4.0 7.0 0.00 0.00 0.00 43 1014.8
20180918223516 74 144 2.0 4.0 0.00 0.00 0.00 44 1014.8
20180918223014 74 272 3.0 5.0 0.00 0.00 0.00 44 1014.9
20180918222511 74 247 3.0 5.0 0.00 0.00 0.00 44 1015.0
20180918222013 73 128 1.0 4.0 0.00 0.00 0.00 44 1015.0
20180918221511 74 138 1.0 3.0 0.00 0.00 0.00 44 1015.0
20180918221016 74 145 0.0 2.0 0.00 0.00 0.00 44 1015.0
20180918220511 74 149 0.0 2.0 0.00 0.00 0.00 44 1015.0
20180918220016 73 136 0.0 2.0 0.00 0.00 0.00 44 1015.0
20180918215511 73 135 1.0 2.0 0.00 0.00 0.00 45 1015.1
20180918215013 73 135 0.0 1.0 0.00 0.00 0.00 45 1015.1
20180918214512 73 288 2.0 4.0 0.00 0.00 0.00 44 1015.2
20180918214014 73 135 1.0 2.0 0.00 0.00 0.00 44 1015.3
20180918213511 73 135 1.0 3.0 0.00 0.00 0.00 45 1015.3
20180918213013 73 178 0.0 2.0 0.00 0.00 0.00 45 1015.4
20180918212513 73 135 1.0 3.0 0.00 0.00 0.00 45 1015.5
20180918212012 73 248 2.0 4.0 0.00 0.00 0.00 46 1015.5
20180918211555 73 116 0.0 2.0 0.00 0.00 0.00 46 1015.6
20180918211022 72 135 0.0 2.0 0.00 0.00 0.00 46 1015.6
20180918210450 71 135 1.0 3.0 0.00 0.00 0.00 47 1015.7
20180918203012 71 131 1.0 3.0 0.00 0.00 0.00 48 1016.1
20180918202511 72 270 1.0 3.0 0.00 0.00 0.00 47 1016.1
20180918202013 72 165 1.0 2.0 0.00 0.00 0.00 47 1016.1
20180918201510 72 146 1.0 3.0 0.00 0.00 0.00 46 1016.1
20180918201011 72 182 1.0 4.0 0.00 0.00 0.00 46 1016.1
20180918200513 73 224 0.0 2.0 0.00 0.00 0.00 45 1016.2
20180918200015 74 114 1.0 3.0 0.00 0.00 0.00 44 1016.3
20180918195558 74 154 1.0 4.0 0.00 0.00 0.00 43 1016.1
20180918195012 74 135 1.0 3.0 0.00 0.00 0.00 43 1016.1
20180918194513 74 157 1.0 2.0 0.00 0.00 0.00 40 1016.2
20180918194013 74 270 0.0 2.0 0.00 0.00 0.00 38 1016.3
20180918193511 73 33 1.0 3.0 0.00 0.00 0.00 39 1016.3
20180918193012 73 81 0.0 2.0 0.00 0.00 0.00 39 1016.3
20180918192511 73 36 1.0 2.0 0.00 0.00 0.00 40 1016.4
20180918192012 73 157 2.0 3.0 0.00 0.00 0.00 40 1016.5
20180918191512 72 116 0.0 1.0 0.00 0.00 0.00 41 1016.5
20180918191013 72 343 1.0 3.0 0.00 0.00 0.00 42 1016.6
20180918190510 71 142 1.0 2.0 0.00 0.00 0.00 42 1016.7
20180918190015 71 145 1.0 2.0 0.00 0.00 0.00 44 1016.7
20180918185511 71 157 1.0 2.0 0.00 0.00 0.00 43 1016.8
20180918185012 70 135 1.0 3.0 0.00 0.00 0.00 42 1016.9
20180918184511 70 193 2.0 3.0 0.00 0.00 0.00 41 1016.8
20180918184013 70 239 1.0 2.0 0.00 0.00 0.00 40 1016.8
20180918183511 70 151 2.0 3.0 0.00 0.00 0.00 40 1016.9
20180918183012 70 149 1.0 3.0 0.00 0.00 0.00 40 1016.9
20180918182510 69 237 1.0 3.0 0.00 0.00 0.00 41 1017.0
20180918182012 70 158 2.0 4.0 0.00 0.00 0.00 41 1016.9
20180918181511 69 146 1.0 3.0 0.00 0.00 0.00 42 1016.9